TimeCDT,TemperatureF,Dew PointF,Humidity,Sea Level PressureIn,VisibilityMPH,Wind Direction,Wind SpeedMPH,Gust SpeedMPH,PrecipitationIn,Events,Conditions,WindDirDegrees,DateUTC
12:15 AM,62.6,39.2,42,29.92,2.5,NNE,3.5,-,N/A,,Haze,20,2012-10-01 05:15:00
12:35 AM,60.8,41.0,48,29.91,2.5,NE,5.8,-,N/A,,Haze,40,2012-10-01 05:35:00
12:55 AM,59.0,41.0,51,29.91,4.0,NE,5.8,-,N/A,,Haze,50,2012-10-01 05:55:00
1:15 AM,57.2,41.0,55,29.91,4.0,NE,5.8,-,N/A,,Haze,50,2012-10-01 06:15:00
1:35 AM,57.2,41.0,55,29.91,4.0,ENE,4.6,-,N/A,,Haze,60,2012-10-01 06:35:00
1:55 AM,57.2,41.0,55,29.90,4.0,ENE,5.8,-,N/A,,Haze,60,2012-10-01 06:55:00
2:35 AM,59.0,39.2,48,29.90,1.5,Calm,Calm,-,N/A,,Haze,0,2012-10-01 07:35:00
2:55 AM,57.2,41.0,55,29.90,4.0,NE,4.6,-,N/A,,Haze,40,2012-10-01 07:55:00
3:15 AM,57.2,41.0,55,29.89,5.0,NE,4.6,-,N/A,,Haze,50,2012-10-01 08:15:00
3:55 AM,55.4,41.0,58,29.89,3.0,NE,5.8,-,N/A,,Haze,40,2012-10-01 08:55:00
4:15 AM,55.4,41.0,58,29.89,5.0,NE,5.8,-,N/A,,Haze,40,2012-10-01 09:15:00
4:35 AM,55.4,41.0,58,29.89,5.0,NE,5.8,-,N/A,,Haze,50,2012-10-01 09:35:00
4:55 AM,55.4,39.2,54,29.89,1.5,NNE,5.8,-,N/A,,Haze,30,2012-10-01 09:55:00
5:15 AM,53.6,41.0,62,29.89,5.0,NE,5.8,-,N/A,,Haze,50,2012-10-01 10:15:00
5:35 AM,53.6,41.0,62,29.89,4.0,NE,5.8,-,N/A,,Haze,40,2012-10-01 10:35:00
5:55 AM,53.6,41.0,62,29.89,4.0,NE,5.8,-,N/A,,Haze,40,2012-10-01 10:55:00
6:15 AM,53.6,41.0,62,29.89,4.0,NNE,4.6,-,N/A,,Haze,20,2012-10-01 11:15:00
6:35 AM,53.6,41.0,62,29.89,10.0,North,4.6,-,N/A,,Clear,350,2012-10-01 11:35:00
6:55 AM,53.6,41.0,62,29.89,10.0,Calm,Calm,-,N/A,,Clear,0,2012-10-01 11:55:00
7:15 AM,53.6,42.8,67,29.89,7.0,Calm,Calm,-,N/A,,Clear,0,2012-10-01 12:15:00
7:35 AM,51.8,41.0,67,29.90,7.0,Calm,Calm,-,N/A,,Clear,0,2012-10-01 12:35:00
7:55 AM,51.8,42.8,71,29.90,7.0,Calm,Calm,-,N/A,,Clear,0,2012-10-01 12:55:00
8:15 AM,51.8,44.6,76,29.90,4.0,Calm,Calm,-,N/A,,Haze,0,2012-10-01 13:15:00
8:35 AM,53.6,44.6,72,29.90,5.0,Calm,Calm,-,N/A,,Haze,0,2012-10-01 13:35:00
8:55 AM,55.4,44.6,67,29.91,10.0,Calm,Calm,-,N/A,,Clear,0,2012-10-01 13:55:00
9:15 AM,57.2,44.6,63,29.90,5.0,Calm,Calm,-,N/A,,Haze,0,2012-10-01 14:15:00
9:35 AM,57.2,48.2,72,29.91,10.0,Calm,Calm,-,N/A,,Clear,0,2012-10-01 14:35:00
9:55 AM,62.6,44.6,52,29.91,10.0,Calm,Calm,-,N/A,,Clear,0,2012-10-01 14:55:00
10:15 AM,64.4,42.8,45,29.91,7.0,NNE,4.6,-,N/A,,Clear,30,2012-10-01 15:15:00
10:35 AM,66.2,41.0,40,29.91,7.0,North,9.2,-,N/A,,Clear,10,2012-10-01 15:35:00
10:55 AM,69.8,39.2,33,29.91,10.0,North,11.5,-,N/A,,Clear,10,2012-10-01 15:55:00
11:15 AM,69.8,41.0,35,29.91,10.0,North,16.1,-,N/A,,Clear,360,2012-10-01 16:15:00
11:35 AM,71.6,39.2,31,29.91,10.0,North,15.0,20.7,N/A,,Clear,360,2012-10-01 16:35:00
12:15 PM,73.4,42.8,33,29.90,7.0,NNE,17.3,25.3,N/A,,Clear,30,2012-10-01 17:15:00
12:35 PM,73.4,42.8,33,29.90,10.0,NNE,12.7,25.3,N/A,,Clear,30,2012-10-01 17:35:00
1:15 PM,75.2,42.8,31,29.89,10.0,North,17.3,25.3,N/A,,Clear,360,2012-10-01 18:15:00
1:35 PM,75.2,42.8,31,29.89,10.0,North,18.4,24.2,N/A,,Clear,10,2012-10-01 18:35:00
1:55 PM,75.2,41.0,29,29.88,10.0,North,18.4,24.2,N/A,,Clear,10,2012-10-01 18:55:00
2:15 PM,75.2,42.8,31,29.88,10.0,North,18.4,26.5,N/A,,Clear,10,2012-10-01 19:15:00
2:55 PM,75.2,42.8,31,29.88,10.0,North,16.1,24.2,N/A,,Clear,350,2012-10-01 19:55:00
3:15 PM,73.4,41.0,31,29.88,10.0,North,16.1,23.0,N/A,,Clear,10,2012-10-01 20:15:00
3:35 PM,75.2,39.2,27,29.88,10.0,North,16.1,25.3,N/A,,Clear,350,2012-10-01 20:35:00
3:55 PM,75.2,39.2,27,29.88,10.0,North,15.0,23.0,N/A,,Scattered Clouds,360,2012-10-01 20:55:00
4:15 PM,75.2,37.4,25,29.88,10.0,NNW,20.7,24.2,N/A,,Scattered Clouds,340,2012-10-01 21:15:00
4:35 PM,73.4,37.4,27,29.88,10.0,North,17.3,-,N/A,,Clear,360,2012-10-01 21:35:00
5:15 PM,71.6,32.0,23,29.89,10.0,NNW,20.7,31.1,N/A,,Clear,340,2012-10-01 22:15:00
5:35 PM,71.6,30.2,22,29.90,10.0,NNW,16.1,21.9,N/A,,Clear,340,2012-10-01 22:35:00
5:55 PM,69.8,26.6,20,29.90,10.0,North,13.8,28.8,N/A,,Clear,350,2012-10-01 22:55:00
6:15 PM,69.8,23.0,17,29.91,10.0,North,15.0,24.2,N/A,,Clear,360,2012-10-01 23:15:00
6:35 PM,68.0,24.8,20,29.91,10.0,North,11.5,19.6,N/A,,Clear,360,2012-10-01 23:35:00
6:55 PM,66.2,26.6,23,29.91,10.0,North,9.2,-,N/A,,Clear,360,2012-10-01 23:55:00
7:15 PM,64.4,26.6,24,29.91,10.0,North,8.1,-,N/A,,Clear,350,2012-10-02 00:15:00
7:35 PM,62.6,28.4,27,29.92,10.0,NNW,8.1,-,N/A,,Clear,340,2012-10-02 00:35:00
7:55 PM,62.6,30.2,30,29.92,10.0,NNW,6.9,-,N/A,,Clear,340,2012-10-02 00:55:00
8:15 PM,62.6,33.8,34,29.92,10.0,NNW,8.1,-,N/A,,Clear,340,2012-10-02 01:15:00
8:35 PM,62.6,35.6,37,29.92,10.0,NNW,8.1,-,N/A,,Clear,340,2012-10-02 01:35:00
8:55 PM,60.8,37.4,42,29.93,10.0,NNW,8.1,-,N/A,,Clear,330,2012-10-02 01:55:00
9:15 PM,59.0,37.4,45,29.93,10.0,NNW,9.2,-,N/A,,Clear,330,2012-10-02 02:15:00
9:35 PM,60.8,35.6,39,29.93,10.0,NNW,11.5,-,N/A,,Clear,330,2012-10-02 02:35:00
9:55 PM,60.8,35.6,39,29.94,10.0,NNW,13.8,18.4,N/A,,Clear,340,2012-10-02 02:55:00
10:15 PM,60.8,35.6,39,29.94,10.0,NNW,11.5,-,N/A,,Clear,340,2012-10-02 03:15:00
10:35 PM,59.0,33.8,39,29.94,10.0,NNW,11.5,17.3,N/A,,Clear,340,2012-10-02 03:35:00
10:55 PM,59.0,33.8,39,29.94,10.0,NNW,11.5,-,N/A,,Clear,330,2012-10-02 03:55:00
11:15 PM,59.0,32.0,36,29.94,10.0,NNW,11.5,-,N/A,,Clear,340,2012-10-02 04:15:00
11:35 PM,57.2,30.2,36,29.94,10.0,North,13.8,17.3,N/A,,Clear,350,2012-10-02 04:35:00
11:55 PM,57.2,30.2,36,29.94,10.0,NNW,11.5,18.4,N/A,,Clear,340,2012-10-02 04:55:00